Location: Unspecified
(0.0000°N, 0.0000°E)
Time: 22:49:52
(UTC+00:00)

A-11 Canister half - All Passes

Search period start: 28 May 2022 00:00
Search period end: 07 June 2022 00:00
Orbit: 1513 x 1686 km, 47.2° (Epoch: 27 May)

Date Brightness Start Highest point End Pass type
(mag) Time Alt. Az. Time Alt. Az. Time Alt. Az.
28 May - 02:03:28 10° S 02:09:05 16° SE 02:14:35 10° E visible
28 May - 04:04:22 10° SW 04:14:28 81° SE 04:24:11 10° NE visible
28 May - 06:12:39 10° W 06:19:24 21° NW 06:26:02 10° N daylight
28 May - 14:51:40 10° NNW 14:59:50 34° NE 15:08:11 10° ESE daylight
28 May - 16:55:34 10° WNW 17:04:32 50° SW 17:13:51 10° SSE daylight
29 May - 01:41:08 10° SSE 01:46:02 14° SE 01:50:52 10° ESE visible
29 May - 03:41:27 10° SW 03:51:32 75° SE 04:01:14 10° NE visible
29 May - 05:49:12 10° W 05:56:25 23° NW 06:03:31 10° N daylight
29 May - 14:29:00 10° N 14:36:55 31° NE 14:44:58 10° ESE daylight
29 May - 16:32:33 10° NW 16:41:36 54° SW 16:51:01 10° SSE daylight
30 May - 01:18:58 10° SSE 01:22:59 13° SE 01:26:58 10° ESE visible
30 May - 03:18:31 10° SSW 03:28:35 70° SE 03:38:17 10° NE visible
30 May - 05:25:48 10° W 05:33:27 25° NW 05:40:56 10° N visible
30 May - 14:06:21 10° N 14:13:58 28° NE 14:21:43 10° ESE daylight
30 May - 16:09:33 10° NW 16:18:40 59° SW 16:28:10 10° SSE daylight
31 May - 00:57:07 10° SSE 00:59:55 11° SE 01:02:43 10° ESE visible
31 May - 02:55:37 10° SSW 03:05:38 64° SE 03:15:18 10° NE visible
31 May - 05:02:28 10° WSW 05:10:29 28° NW 05:18:20 10° N visible
31 May - 13:43:44 10° N 13:51:01 26° NE 13:58:25 10° E daylight
31 May - 15:46:33 10° NW 15:55:45 65° SW 16:05:17 10° SSE daylight
31 May - 17:59:22 10° SW 18:01:21 11° SW 18:03:20 10° SSW daylight
01 Jun - 02:32:44 10° SSW 02:42:40 59° SE 02:52:18 10° NE visible
01 Jun - 04:39:09 10° WSW 04:47:31 30° NW 04:55:41 10° N visible
01 Jun - 13:21:09 10° N 13:28:05 23° NE 13:35:05 10° E daylight
01 Jun - 15:23:36 10° NW 15:32:50 70° SW 15:42:24 10° SSE daylight
01 Jun - 17:34:56 10° WSW 17:38:18 12° SW 17:41:42 10° SSW daylight
02 Jun - 02:09:52 10° SSW 02:19:43 54° SE 02:29:16 10° NE visible
02 Jun - 04:15:53 10° WSW 04:24:33 33° NW 04:33:01 10° NNE visible
02 Jun - 12:58:37 10° N 13:05:07 21° NE 13:11:40 10° E daylight
02 Jun - 15:00:39 10° NW 15:09:55 76° SW 15:19:30 10° SE daylight
02 Jun - 17:10:59 10° WSW 17:15:16 14° SW 17:19:37 10° SSW daylight
03 Jun - 01:47:02 10° SSW 01:56:45 50° SE 02:06:13 10° ENE visible
03 Jun - 03:52:39 10° WSW 04:01:36 37° NW 04:10:19 10° NNE visible
03 Jun - 12:36:07 10° N 12:42:09 19° NE 12:48:13 10° E daylight
03 Jun - 14:37:44 10° NW 14:47:00 82° SW 14:56:35 10° SE daylight
03 Jun - 16:47:15 10° WSW 16:52:14 15° SW 16:57:20 10° SSW daylight
04 Jun - 01:24:11 10° SSW 01:33:47 46° SE 01:43:07 10° ENE visible
04 Jun - 03:29:27 10° WSW 03:38:38 40° NW 03:47:36 10° NNE visible
04 Jun - 12:13:42 10° N 12:19:11 17° NE 12:24:42 10° E daylight
04 Jun - 14:14:49 10° NW 14:24:06 89° SW 14:33:40 10° SE daylight
04 Jun - 16:23:40 10° W 16:29:14 17° SW 16:34:55 10° S daylight
05 Jun - 01:01:23 10° SSW 01:10:49 42° SE 01:20:01 10° ENE visible
05 Jun - 03:06:17 10° WSW 03:15:40 44° NW 03:24:50 10° NNE visible
05 Jun - 11:51:21 10° NNE 11:56:12 15° NE 12:01:04 10° ENE daylight
05 Jun - 13:51:56 10° NW 14:01:11 85° NE 14:10:43 10° SE daylight
05 Jun - 16:00:10 10° W 16:06:14 19° SW 16:12:27 10° S daylight
06 Jun - 00:38:35 10° SSW 00:47:50 39° SE 00:56:53 10° ENE visible
06 Jun - 02:43:08 10° WSW 02:52:43 48° NW 03:02:04 10° NNE visible
06 Jun - 11:29:09 10° NNE 11:33:13 13° NE 11:37:15 10° ENE daylight
06 Jun - 13:29:03 10° NW 13:38:17 78° NE 13:47:45 10° SE daylight
06 Jun - 15:36:46 10° W 15:43:15 21° SW 15:49:54 10° S daylight
